Regional Weather Roundup
Issued by NWS Sioux Falls, SD

Home | Current Version | Previous Version | Text Only | Print | Product List | Glossary On
Versions: 1 2 3 4 5 6 7 8 9 10 11 12 13 14 15 16 17 18 19 20 21 22 23 24 25 26 27 28 29 30 31 32 33 34 35 36 37 38 39 40 41 42 43 44 45 46 47 48 49 50
000
ASUS43 KFSD 261110
RWRFSD

WEATHER ROUNDUP FOR SE SOUTH DAKOTA/SW MINNESOTA/NW IOWA
NATIONAL WEATHER SERVICE SIOUX FALLS SD
600 AM CDT FRI MAY 26 2017

NOTE: "FAIR" INDICATES FEW OR NO CLOUDS BELOW 12,000 FEET WITH NO
SIGNIFICANT WEATHER AND OR OBSTRUCTIONS TO VISIBILITY.


SDZ038>040-050-052>070-261200-
SOUTHEAST SOUTH DAKOTA

CITY           SKY/WX    TMP DP  RH WIND       PRES   REMARKS
BROOKINGS      CLOUDY    52  48  86 MISG      29.70R
CHAMBERLAIN    CLOUDY    52  45  77 W9        29.80R
HURON          CLOUDY    49  45  86 NW9       29.75R
MADISON        FAIR      50  50 100 NW14      29.71R
MITCHELL       CLOUDY    54  46  74 NW12      29.76R
SIOUX FALLS    CLOUDY    54  51  90 CALM      29.70R
WINNER         FAIR      50  43  77 NW13G20   29.82R
YANKTON        CLOUDY    55  47  74 NW17      29.72R
$$

MNZ071-072-080-081-089-090-097-098-261200-
SOUTHWEST MINNESOTA

CITY           SKY/WX    TMP DP  RH WIND       PRES   REMARKS
FAIRMONT       CLOUDY    58  52  80 S7        29.70R
JACKSON        CLOUDY    55  52  88 CALM      29.70R
LUVERNE        CLOUDY    50  46  87 CALM      29.71R
MARSHALL       PTCLDY    53  49  86 W5        29.68R
MONTEVIDEO     PTCLDY    52  50  93 SW7       29.66R
PIPESTONE      CLOUDY    52  46  82 CALM      29.70R
REDWOOD FALLS  CLOUDY    53  49  86 S3        29.68R
TRACY          CLOUDY    58  53  82 SW10      29.68S
WINDOM         CLOUDY    55  52  88 CALM      29.70R
WORTHINGTON    CLOUDY    55  51  86 S6        29.70R
$$

IAZ001>003-012>014-020>022-031-032-NEZ013-014-SDZ071-261200-
NORTHWEST IOWA

CITY           SKY/WX    TMP DP  RH WIND       PRES   REMARKS
CHEROKEE       CLOUDY    58  56  91 CALM      29.68R
DENISON        MOCLDY    61  54  77 CALM      29.67S
ESTHERVILLE    CLOUDY    57  54  89 S7        29.68R
LE MARS        CLOUDY    54  54 100 MISG      29.69R
ORANGE CITY    CLOUDY    57  55  94 CALM      29.69R
SHELDON        CLOUDY    55  52  88 CALM      29.68R
SIOUX CITY     CLOUDY    57  56  96 NW5       29.68R
SPENCER        CLOUDY    59  54  83 CALM      29.69R
STORM LAKE     CLOUDY    59  54  82 SE6       29.68R
$$

ABBREVIATIONS USED IN REMARKS
   TC - TEMPERATURE IN CELSIUS
  WCI - WIND CHILL INDEX
   HX - HEAT INDEX
  VSB - VISIBILITY





USA.gov is the U.S. government's official web portal to all federal, state and local government web resources and services.